Home > Time Zones > World Clock > Weather > Qatar > Doha > Past weeks

Flag for Qatar Weather past 2 weeks in Doha, Qatar

Now
70 °F

Clear.


Feels Like: 70 °F
Forecast: 64 / 80 °F
Wind: 7 mph from Northwest

Location: Doha International Airport

Current Time: Mar 4, 2015 at 3:53:31 AM

Latest Report: Mar 4, 2015 at 3:30 AM


Visibility: 10 mi

Pressure: 29.92 "Hg

Humidity: 43%

Dew point: 46 °F

Location of DohaLocation

Historic Weather in Doha — Graph

°F

Doha temperature yesterday

Maximum temperature yesterday: 79 °F (at 12:00 PM)
Minimum temperature yesterday: 64 °F (at 4:00 AM)
Average temperature yesterday: 72 °F

Past Weeks' High & Low Weather Summary

 TemperatureHumidityPressure
High91 °F (Feb 20, 2:00 PM)94% (Feb 20, 12:00 AM)30.21 "Hg (Feb 20, 12:00 AM)
Low55 °F (Feb 24, 3:00 AM)15% (Mar 2, 12:30 PM)29.56 "Hg (Feb 20, 3:30 PM)
Average69 °F57%29.96 "Hg
* Reported Feb 17 2:00 AM — Mar 4 2:00 AM, Doha, Weather by CustomWeather, © 2015

Note: Actual official high and low records may vary slightly from our data, if they occured in-between our weather recording intervals... More about our weather records

Advertising

Doha weather history for previous 24 hours

 ConditionsComfort  
Time TempWeatherWind HumidityBarometerVisibility
2:00 AM
Wed, Mar 4
68 °FClear.10 mph40%29.95 "Hg10 mi
1:00 AM70 °FClear.8 mph35%29.98 "Hg10 mi
12:30 AM70 °FClear.7 mph35%29.98 "Hg10 mi
12:00 AM70 °FClear.8 mph38%29.98 "Hg10 mi
11:30 PM
Tue, Mar 3
70 °FClear.8 mph33%29.98 "Hg10 mi
11:00 PM72 °FClear.8 mph31%30.01 "Hg10 mi
10:00 PM72 °FClear.10 mph33%30.01 "Hg10 mi
9:00 PM72 °FClear.7 mph41%30.01 "Hg10 mi
8:00 PM72 °FPassing clouds.3 mph50%30.01 "HgN/A
7:00 PM72 °FClear.10 mph50%29.98 "Hg10 mi
6:00 PM73 °FClear.12 mph44%29.95 "Hg10 mi
5:00 PM75 °FSunny.10 mph41%29.95 "Hg10 mi
4:00 PM75 °FSunny.17 mph34%29.95 "Hg10 mi
3:00 PM77 °FSunny.16 mph26%29.95 "Hg10 mi
2:00 PM79 °FSunny.18 mph20%29.95 "Hg10 mi
1:00 PM79 °FSunny.18 mph24%29.98 "Hg10 mi
12:30 PM79 °FSunny.14 mph34%29.98 "Hg10 mi
12:00 PM79 °FSunny.12 mph37%29.98 "Hg10 mi
11:30 AM77 °FSunny.14 mph34%30.01 "Hg10 mi
11:00 AM77 °FSunny.13 mph47%30.01 "Hg10 mi
10:00 AM75 °FSunny.14 mph47%30.04 "Hg10 mi
9:30 AM73 °FSunny.13 mph50%30.04 "Hg10 mi
9:00 AM73 °FSunny.13 mph41%30.04 "Hg10 mi
8:30 AM72 °FSunny.8 mph61%30.04 "Hg10 mi
8:00 AM70 °FSunny.6 mph60%30.04 "Hg10 mi
7:00 AM66 °FClear.7 mph78%30.01 "Hg6 mi
6:00 AM64 °FClear.5 mph88%29.98 "Hg4 mi
5:30 AM64 °FClear.6 mph88%29.98 "Hg6 mi
5:00 AM64 °FClear.3 mph88%29.95 "Hg6 mi
4:00 AM64 °FClear.9 mph83%29.95 "Hg10 mi
3:00 AM66 °FClear.9 mph78%29.95 "Hg10 mi
Weather by CustomWeather, © 2015

See weather overviewHow to use our weather pages